Weather reports worldwide

Advertisment
Heraklion, Greece (16754): temperature & dewpoint: 12.06.2019 05:00:00 - 18.06.2019 05:00:00 (EEST)Heraklion, Greece (16754): wind speed: 12.06.2019 05:00:00 - 18.06.2019 05:00:00 (EEST)Heraklion, Greece (16754): wind direction: 12.06.2019 05:00:00 - 18.06.2019 05:00:00 (EEST)Heraklion, Greece (16754): reduced air pressure: 12.06.2019 05:00:00 - 18.06.2019 05:00:00 (EEST)Heraklion, Greece (16754): visibility: 12.06.2019 05:00:00 - 18.06.2019 05:00:00 (EEST)
Date & Time tt [°C] td [°C] ff [km/h] ff [kn] dd ppp [hPa] vv [km]
18.06.2019 05:00:00 22,0 15,0 9 5 S - 10
18.06.2019 04:00:00 22,0 16,0 8 4 S - 10
18.06.2019 03:00:00 24,6 17,6 0 0 N 1011,0 10
18.06.2019 02:00:00 24,0 18,0 4 2 SSW - 10
18.06.2019 01:00:00 24,0 18,0 8 4 W - 10
18.06.2019 00:00:00 24,0 19,4 5 3 SSW 1011,1 10
17.06.2019 23:00:00 24,0 19,0 5 3 S - 10
17.06.2019 22:00:00 25,0 21,0 5 3 NW - 10
17.06.2019 21:00:00 25,2 21,6 0 0 N 1010,3 10
17.06.2019 20:00:00 27,0 22,0 0 0 N - 10
17.06.2019 19:00:00 28,0 18,0 15 8 NW - 10
17.06.2019 18:00:00 27,2 18,9 18 10 NW 1010,0 10
17.06.2019 17:00:00 28,0 21,0 16 9 NNW - 10
17.06.2019 16:00:00 29,0 20,0 16 9 NNW - 10
17.06.2019 15:00:00 28,4 19,2 21 11 NW 1010,7 10
17.06.2019 14:00:00 28,0 16,0 21 11 NW - 10
17.06.2019 13:00:00 28,0 17,0 21 11 NW - 10
17.06.2019 12:00:00 28,6 17,7 22 12 WNW 1010,9 10
17.06.2019 11:00:00 28,0 18,0 18 10 WNW - 10
17.06.2019 10:00:00 27,0 18,0 22 12 WNW - 10
17.06.2019 09:00:00 26,8 17,7 21 11 WNW 1010,6 15
17.06.2019 08:00:00 25,0 17,0 9 5 W - 10
17.06.2019 07:00:00 21,0 16,0 8 4 S - 10
17.06.2019 06:00:00 21,6 16,4 9 5 S 1009,1 10
17.06.2019 05:00:00 24,0 18,0 5 3 - - 10
17.06.2019 04:00:00 24,0 18,0 24 13 S - 10
17.06.2019 03:00:00 24,4 18,1 18 10 WNW 1009,3 10
17.06.2019 02:00:00 24,0 19,0 22 12 WNW - 10
17.06.2019 01:00:00 24,0 21,0 16 9 WNW - 10
17.06.2019 00:00:00 24,4 20,8 26 14 WNW 1010,9 10
16.06.2019 23:00:00 25,0 21,0 16 9 NW - 10
16.06.2019 22:00:00 25,0 20,0 15 8 NW - 10
16.06.2019 21:00:00 25,4 18,2 21 11 WNW 1009,8 10
16.06.2019 20:00:00 26,0 20,0 26 14 WNW - 10
16.06.2019 19:00:00 27,0 18,0 28 15 WNW - 10
16.06.2019 18:00:00 27,4 18,8 22 12 WNW 1009,4 10
16.06.2019 17:00:00 27,0 19,0 26 14 WNW - 10
16.06.2019 16:00:00 27,0 20,0 29 16 WNW - 10
16.06.2019 15:00:00 27,0 19,7 24 13 WNW 1010,5 10
16.06.2019 14:00:00 27,0 21,0 22 12 WNW - 10
16.06.2019 13:00:00 26,0 21,0 22 12 NW - 10
16.06.2019 12:00:00 26,0 20,9 22 12 WNW 1010,9 10
16.06.2019 11:00:00 26,0 21,0 24 13 WNW - 10
16.06.2019 10:00:00 25,0 21,0 24 13 WNW - 10
16.06.2019 09:00:00 24,8 20,6 22 12 NW 1009,6 10
16.06.2019 08:00:00 24,0 20,0 22 12 WNW - 10
16.06.2019 07:00:00 24,0 20,0 29 16 WNW - 10
16.06.2019 06:00:00 23,0 18,3 22 12 NW 1009,1 10
16.06.2019 05:00:00 24,0 18,0 29 16 NW - 10
16.06.2019 04:00:00 25,0 19,0 28 15 WNW - 10
16.06.2019 03:00:00 25,0 18,8 28 15 WNW 1009,1 10
16.06.2019 02:00:00 24,0 18,0 28 15 WNW - 10
16.06.2019 01:00:00 24,0 18,0 18 10 WNW - 10
16.06.2019 00:00:00 24,0 18,3 21 11 W 1009,8 10
15.06.2019 23:00:00 24,0 18,0 21 11 WNW - 10
15.06.2019 22:00:00 25,0 19,0 21 11 WNW - 10
15.06.2019 21:00:00 25,8 18,7 18 10 WNW 1009,8 10
15.06.2019 20:00:00 27,0 18,0 18 10 WNW - 10
15.06.2019 19:00:00 28,0 18,0 26 14 WNW - 10
15.06.2019 18:00:00 28,0 18,4 29 16 WNW 1009,6 10
15.06.2019 17:00:00 28,0 18,0 28 15 WNW - 10
15.06.2019 16:00:00 28,0 19,0 31 17 WNW - 10
15.06.2019 15:00:00 28,4 19,6 29 16 WNW 1010,7 10
15.06.2019 14:00:00 28,0 19,0 31 17 WNW - 10
15.06.2019 13:00:00 28,0 19,0 28 15 WNW - 10
15.06.2019 12:00:00 28,0 19,5 28 15 WNW 1010,5 10
15.06.2019 11:00:00 28,0 20,0 29 16 WNW - 10
15.06.2019 10:00:00 27,0 19,0 28 15 WNW - 10
15.06.2019 09:00:00 27,0 18,3 28 15 WNW 1010,6 10
15.06.2019 08:00:00 27,0 18,0 24 13 WNW - 10
15.06.2019 07:00:00 26,0 18,0 24 13 WNW - 10
15.06.2019 06:00:00 25,4 17,5 29 16 WNW 1010,3 10
15.06.2019 05:00:00 25,0 19,0 28 15 WNW - 10
15.06.2019 04:00:00 25,0 19,0 24 13 WNW - 10
15.06.2019 03:00:00 25,4 18,5 18 10 WNW 1010,7 10
15.06.2019 02:00:00 25,0 18,0 22 12 WNW - 10
15.06.2019 01:00:00 25,0 18,0 18 10 WNW - 10
15.06.2019 00:00:00 25,4 17,5 18 10 WNW 1011,9 10
14.06.2019 23:00:00 25,0 17,0 13 7 WNW - 10
14.06.2019 22:00:00 26,0 17,0 16 9 WNW - 10
14.06.2019 21:00:00 26,0 18,2 18 10 WNW 1011,9 10
14.06.2019 20:00:00 26,0 14,0 15 8 NW - 10
14.06.2019 19:00:00 27,0 18,0 18 10 NW - 10
14.06.2019 18:00:00 27,2 19,9 24 13 NW 1012,5 10
14.06.2019 17:00:00 28,0 20,0 15 8 NW - 10
14.06.2019 16:00:00 28,0 17,0 13 7 NW - 10
14.06.2019 15:00:00 29,0 19,9 18 10 NNW 1012,9 10
14.06.2019 14:00:00 29,0 17,0 16 9 NNW - 10
14.06.2019 13:00:00 29,0 18,0 18 10 NW - 10
14.06.2019 12:00:00 28,6 18,4 11 6 N 1014,3 10
14.06.2019 11:00:00 - - - - - - -
14.06.2019 10:00:00 28,0 18,0 22 12 WNW - 10
14.06.2019 09:00:00 27,0 17,6 22 12 WNW 1013,5 10
14.06.2019 08:00:00 26,0 18,0 24 13 WNW - 10
14.06.2019 07:00:00 26,0 17,0 21 11 WNW - 10
14.06.2019 06:00:00 25,0 17,0 16 9 WNW 1012,9 10
14.06.2019 05:00:00 23,0 16,0 11 6 W - 10
14.06.2019 04:00:00 24,0 17,0 0 0 N - 10
14.06.2019 03:00:00 25,0 17,4 15 8 WNW 1013,4 10
14.06.2019 02:00:00 24,0 18,0 18 10 NW - 10
14.06.2019 01:00:00 24,0 21,0 18 10 NW - 10
14.06.2019 00:00:00 24,2 19,9 13 7 NW 1014,2 10
13.06.2019 23:00:00 24,0 20,0 16 9 WNW - 10
13.06.2019 22:00:00 25,0 18,0 15 8 WNW - 10
13.06.2019 21:00:00 26,0 17,8 15 8 WNW 1013,9 10
13.06.2019 20:00:00 27,0 18,0 21 11 WNW - 10
13.06.2019 19:00:00 27,0 18,0 24 13 WNW - 10
13.06.2019 18:00:00 27,0 18,3 28 15 WNW 1013,9 10
13.06.2019 17:00:00 28,0 18,0 22 12 NW - 10
13.06.2019 16:00:00 29,0 18,0 28 15 WNW - 10
13.06.2019 15:00:00 28,0 18,8 26 14 WNW 1014,7 10
13.06.2019 14:00:00 28,0 19,0 24 13 WNW - 10
13.06.2019 13:00:00 26,0 20,0 21 11 NW - 10
13.06.2019 12:00:00 26,4 19,7 22 12 WNW 1014,9 10
13.06.2019 11:00:00 26,0 20,0 28 15 WNW - 10
13.06.2019 10:00:00 25,0 21,0 22 12 NW - 10
13.06.2019 09:00:00 24,8 20,2 22 12 WNW 1013,9 10
13.06.2019 08:00:00 23,0 18,0 5 3 - - 10
13.06.2019 07:00:00 20,0 17,0 8 4 S - 10
13.06.2019 06:00:00 19,8 15,1 9 5 S 1012,6 10
13.06.2019 05:00:00 20,0 15,0 11 6 S - 10
13.06.2019 04:00:00 21,0 16,0 8 4 S - 10
13.06.2019 03:00:00 20,6 14,5 9 5 S 1012,9 10
13.06.2019 02:00:00 20,0 15,0 15 8 SSE - 10
13.06.2019 01:00:00 21,0 14,0 8 4 SSE - 10
13.06.2019 00:00:00 21,4 15,8 8 4 S 1013,3 10
12.06.2019 23:00:00 22,0 17,0 5 3 SSE - 10
12.06.2019 22:00:00 23,0 18,0 4 2 - - 10
12.06.2019 21:00:00 23,4 19,4 5 3 - 1013,0 10
12.06.2019 20:00:00 25,0 20,0 8 4 NNW - 10
12.06.2019 19:00:00 25,0 20,0 9 5 NW - 10
12.06.2019 18:00:00 25,2 21,3 13 7 NNW 1013,0 10
12.06.2019 17:00:00 26,0 21,0 15 8 NW - 10
12.06.2019 16:00:00 25,0 21,0 16 9 NNW - 10
12.06.2019 15:00:00 25,6 21,1 18 10 NNW 1013,1 10
12.06.2019 14:00:00 26,0 20,0 22 12 NW - 10
12.06.2019 13:00:00 25,0 21,0 16 9 NNW - 10
12.06.2019 12:00:00 25,0 21,1 21 11 NNW 1013,0 10
12.06.2019 11:00:00 25,0 19,0 13 7 NW - 10
12.06.2019 10:00:00 24,0 19,0 13 7 WNW - 10
12.06.2019 09:00:00 23,6 19,6 9 5 WNW 1011,9 10
12.06.2019 08:00:00 23,0 19,0 4 2 - - 10
12.06.2019 07:00:00 20,0 16,0 5 3 S - 10
12.06.2019 06:00:00 19,0 15,3 11 6 S 1010,6 10
12.06.2019 05:00:00 20,0 14,0 8 4 S - 10

tt = temperature
td = dewpoint
ff = wind speed
dd = wind direction
ppp = reduced air pressure
vv = visibility

Next stations